Weather History for West Palm Beach, FL

Change the Weather History Date:

Tuesday, January 3, 2012

  Actual Average Record
Temperature  
Mean Temperature 46 °F 66 °F  
Max Temperature 53 °F 75 °F 87 °F (1942)
Min Temperature 39 °F 57 °F 31 °F (1898)
Degree Days  
Heating Degree Days 19 3  
Month to date heating degree days 19 9  
Since 1 July heating degree days 30 80  
Cooling Degree Days 0 4  
Month to date cooling degree days 3 12  
Year to date cooling degree days 3 12  
Moisture  
Dew Point 22 °F    
Average Humidity 43    
Maximum Humidity 71    
Minimum Humidity 15    
Precipitation  
Precipitation 0.00 in 0.12 in 1.55 in (1958)
Month to date precipitation T 0.34  
Year to date precipitation T 0.34  
Snow  
Snow 0.00 in - - ()
Month to date snowfall 0.0  
Since 1 July snowfall 0.0  
Snow Depth 0.00 in    
Sea Level Pressure  
Sea Level Pressure 30.27 in    
Wind  
Wind Speed 14 mph (NW)    
Max Wind Speed 30 mph    
Max Gust Speed 40 mph    
Visibility 10 miles    
Events      
T = Trace of Precipitation, MM = Missing Value Source: NWS Daily Summary

Daily Weather History Graph

Daily Weather History Graph

Search for Another Location

Airport:

Trip Planner

Search our weather history database for the weather conditions in past years. The results will help you decide how hot, cold, wet, or windy it might be!

Date:

Astronomy

Jan. 03, 2012 Rise Set
Actual Time 7:09 AM EST 5:40 PM EST
Civil Twilight 6:44 AM EST 6:05 PM EST
Nautical Twilight 6:15 AM EST 6:34 PM EST
Astronomical Twilight 5:46 AM EST 7:02 PM EST
Moon 1:19 PM EST (1/3) 2:08 AM EST (1/3)
Length of Visible Light 11h 21m
Length of Day
10h 30m
Waxing Gibbous, 72% of the Moon is Illuminated
Jan 3
Waxing Gibbous
Jan 9
Full
Jan 16
Last Quarter
Jan 23
New
Jan 30
First Quarter

Hourly Weather History & Observations

Time (EST) Temp. Windchill Dew Point Humidity Pressure Visibility Wind Dir Wind Speed Gust Speed Precip Events Conditions
12:53 AM 52.0 °F - 39.9 °F 63% 30.17 in 10.0 mi NW 11.5 mph - N/A   Overcast
1:53 AM 50.0 °F - 39.0 °F 66% 30.17 in 10.0 mi NW 13.8 mph - N/A   Partly Cloudy
2:53 AM 50.0 °F - 34.0 °F 54% 30.19 in 10.0 mi NW 15.0 mph 25.3 mph N/A   Partly Cloudy
3:53 AM 48.0 °F - 35.1 °F 61% 30.18 in 10.0 mi NW 8.1 mph - N/A   Scattered Clouds
4:53 AM 48.9 °F - 37.0 °F 64% 30.19 in 10.0 mi NW 9.2 mph - N/A   Partly Cloudy
5:53 AM 46.9 °F - 37.0 °F 68% 30.20 in 10.0 mi WNW 5.8 mph - N/A   Partly Cloudy
6:53 AM 48.0 °F - 37.0 °F 66% 30.21 in 10.0 mi West 4.6 mph - N/A   Mostly Cloudy
7:53 AM 48.0 °F - 30.9 °F 52% 30.27 in 10.0 mi NW 25.3 mph 35.7 mph N/A   Mostly Cloudy
8:53 AM 46.9 °F - 21.9 °F 37% 30.31 in 10.0 mi NNW 25.3 mph 40.3 mph N/A   Mostly Cloudy
9:53 AM 48.0 °F - 21.9 °F 36% 30.32 in 10.0 mi NW 26.5 mph 36.8 mph N/A   Mostly Cloudy
10:53 AM 50.0 °F - 15.1 °F 25% 30.33 in 10.0 mi NNW 20.7 mph 29.9 mph N/A   Mostly Cloudy
11:53 AM 52.0 °F - 10.0 °F 19% 30.30 in 10.0 mi NNW 21.9 mph 26.5 mph N/A   Scattered Clouds
12:53 PM 52.0 °F - 7.0 °F 16% 30.27 in 10.0 mi NNW 18.4 mph 28.8 mph N/A   Scattered Clouds
1:53 PM 52.0 °F - 8.1 °F 17% 30.27 in 10.0 mi NNW 16.1 mph - N/A   Partly Cloudy
2:53 PM 53.1 °F - 8.1 °F 16% 30.26 in 10.0 mi North 17.3 mph 24.2 mph N/A   Partly Cloudy
3:53 PM 53.1 °F - 7.0 °F 16% 30.27 in 10.0 mi NNW 17.3 mph - N/A   Partly Cloudy
4:53 PM 50.0 °F - 10.0 °F 20% 30.29 in 10.0 mi NW 12.7 mph - N/A   Partly Cloudy
5:53 PM 46.9 °F - 12.9 °F 25% 30.30 in 10.0 mi NNW 8.1 mph - N/A   Partly Cloudy
6:53 PM 43.0 °F 38.2 °F 19.0 °F 38% 30.32 in 10.0 mi NNW 8.1 mph - N/A   Partly Cloudy
7:53 PM 43.0 °F 37.7 °F 19.9 °F 40% 30.34 in 10.0 mi NW 9.2 mph - N/A   Clear
8:53 PM 42.1 °F 36.6 °F 21.9 °F 45% 30.35 in 10.0 mi NW 9.2 mph - N/A   Clear
9:53 PM 41.0 °F 35.2 °F 21.9 °F 47% 30.36 in 10.0 mi NW 9.2 mph - N/A   Clear
10:53 PM 39.9 °F 33.9 °F 21.9 °F 49% 30.36 in 10.0 mi NW 9.2 mph - N/A   Clear
11:53 PM 41.0 °F 34.7 °F 19.9 °F 43% 30.36 in 10.0 mi NW 10.4 mph - N/A   Clear